FW8889 Weather Reports


time (UTC)temp
F
wind
direction
speed
knots
gust
knots
rain 1hr
in
rain 24hr
in
rain mn
in
humidity
%
barometer
mb
20260510084543 50 0 0.0 0.9 0.00 0.55 0.01 85 1012.4
20260510083055 50 0 0.0 1.7 0.00 0.55 0.01 85 1012.4
20260510081553 50 0 0.0 1.7 0.00 0.55 0.01 85 1012.4
20260510080050 50 139 0.0 1.7 0.00 0.55 0.01 85 1012.2
20260510074553 50 0 0.0 0.9 0.00 0.55 0.01 85 1012.2
20260510073111 50 0 0.0 0.9 0.00 0.55 0.01 85 1012.1
20260510071603 50 0 0.0 0.0 0.00 0.55 0.01 85 1011.9
20260510070050 50 0 0.0 0.0 0.00 0.55 0.01 85 1011.9
20260510064559 50 0 0.0 0.0 0.00 0.55 0.01 85 1012.0
20260510063050 50 0 0.0 0.0 0.00 0.55 0.01 85 1012.1
20260510061555 50 0 0.0 0.9 0.00 0.55 0.01 85 1011.9
20260510060049 50 139 0.0 0.9 0.00 0.55 0.01 85 1012.1
20260510054548 50 0 0.0 0.9 0.01 0.55 0.01 85 1012.3
20260510053048 50 0 0.0 0.0 0.01 0.55 0.01 85 1012.6
20260510051545 49 0 0.0 1.7 0.01 0.55 0.01 86 1012.7
20260510050052 49 0 0.0 0.9 0.01 0.55 0.01 86 1012.7
20260510045049 48 0 0.0 0.9 0.00 0.54 0.00 86 1012.7
20260510043106 48 0 0.0 0.9 0.00 0.54 0.00 86 1012.5
20260510041550 48 0 0.0 0.0 0.00 0.54 0.00 86 1012.3
20260510040110 48 0 0.0 0.9 0.00 0.54 0.00 86 1012.7
20260510034549 48 0 0.0 0.9 0.00 0.54 0.54 86 1012.9
20260510033053 48 0 0.0 0.0 0.00 0.54 0.54 86 1013.0
20260510031554 48 0 0.0 0.0 0.00 0.54 0.54 86 1013.3
20260510030048 48 0 0.0 0.0 0.00 0.54 0.54 86 1013.3
20260510024546 48 0 0.0 0.0 0.00 0.54 0.54 86 1013.4
20260510023048 48 0 0.0 0.9 0.01 0.54 0.54 86 1013.6
20260510021551 48 0 0.0 0.9 0.01 0.54 0.54 86 1013.4
20260510020055 47 0 0.0 0.9 0.01 0.54 0.54 86 1013.7
20260510014618 47 0 0.0 0.9 0.01 0.54 0.54 86 1014.0
20260510013051 47 139 0.0 0.9 0.01 0.52 0.52 86 1013.7
20260510011556 47 0 0.0 1.7 0.04 0.52 0.52 86 1013.4
20260510010054 47 0 0.0 1.7 0.06 0.52 0.52 86 1013.5
20260510004551 47 139 0.9 1.7 0.09 0.52 0.52 86 1013.4
20260510003057 47 139 0.0 1.7 0.11 0.52 0.52 87 1013.6
20260510001554 47 0 0.0 1.7 0.10 0.49 0.49 87 1013.7
20260510000052 47 139 0.0 1.7 0.09 0.47 0.47 87 1013.7
20260509234548 47 0 0.0 1.7 0.07 0.44 0.44 87 1013.8
20260509233053 47 139 0.0 1.7 0.04 0.41 0.41 87 1013.5
20260509231549 47 139 0.0 0.9 0.03 0.39 0.39 87 1013.4
20260509230051 47 0 0.0 1.7 0.03 0.38 0.38 87 1013.4
20260509224557 47 0 0.0 0.9 0.03 0.37 0.37 87 1013.5
20260509223049 47 0 0.0 0.9 0.05 0.37 0.37 87 1013.4
20260509221602 47 0 0.0 0.9 0.10 0.36 0.36 87 1013.5
20260509220050 47 0 0.0 0.9 0.11 0.35 0.35 87 1013.4
20260509214553 47 0 0.0 1.7 0.14 0.34 0.34 87 1013.3
20260509213049 47 139 0.0 1.7 0.18 0.32 0.32 87 1013.4
20260509211548 47 0 0.0 1.7 0.15 0.26 0.26 87 1013.6
20260509210058 47 0 0.0 1.7 0.13 0.24 0.24 88 1013.5
20260509204556 47 0 0.0 1.7 0.09 0.20 0.20 88 1013.7
20260509203049 48 0 0.0 1.7 0.03 0.14 0.14 87 1013.9
20260509201556 48 139 0.0 2.6 0.00 0.11 0.11 87 1014.0
20260509200057 48 0 0.0 1.7 0.00 0.11 0.11 87 1014.2
20260509194550 48 139 0.0 1.7 0.00 0.11 0.11 87 1013.8
20260509193051 48 0 0.9 2.6 0.00 0.11 0.11 87 1013.3
20260509191548 48 130 0.9 5.2 0.00 0.11 0.11 87 1013.3
20260509190101 49 212 0.0 2.6 0.00 0.11 0.11 87 1013.6
20260509184544 49 0 0.0 2.6 0.01 0.11 0.11 87 1013.7
20260509183049 49 0 0.0 1.7 0.01 0.11 0.11 87 1014.8
20260509181553 49 135 0.9 2.6 0.01 0.11 0.11 87 1014.6
20260509180053 49 134 0.0 1.7 0.01 0.11 0.11 87 1014.6
20260509174547 50 134 0.0 1.7 0.01 0.10 0.10 87 1014.6
20260509173047 49 134 0.0 1.7 0.01 0.10 0.10 87 1014.9
20260509171547 49 0 0.0 1.7 0.02 0.10 0.10 87 1014.8
20260509170057 49 0 0.0 1.7 0.03 0.10 0.10 87 1015.0
20260509164557 49 0 0.0 1.7 0.02 0.09 0.09 87 1015.1
20260509163053 48 133 0.9 3.5 0.03 0.09 0.09 87 1014.8
20260509161559 48 132 0.0 1.7 0.03 0.08 0.08 87 1014.6
20260509160051 48 0 0.0 0.9 0.03 0.07 0.07 86 1015.2
20260509154548 48 0 0.0 1.7 0.04 0.07 0.07 86 1015.4
20260509153055 48 0 0.0 0.9 0.03 0.06 0.06 86 1015.7
20260509151558 48 0 0.0 0.9 0.03 0.05 0.05 86 1015.8
20260509150054 48 0 0.0 0.9 0.04 0.04 0.04 84 1015.9
20260509144550 48 0 0.0 0.9 0.03 0.03 0.03 84 1016.1
20260509143055 49 0 0.0 1.7 0.03 0.03 0.03 82 1016.2
20260509141549 49 0 0.0 1.7 0.02 0.02 0.02 78 1016.1
20260509140059 50 0 0.0 1.7 0.00 0.00 0.00 73 1016.1
20260509134607 51 0 0.0 2.6 0.00 0.00 0.00 67 1015.9
20260509133050 51 0 0.0 2.6 0.00 0.00 0.00 65 1015.8
20260509131553 51 0 0.0 2.6 0.00 0.00 0.00 64 1015.6
20260509130048 51 0 0.0 1.7 0.00 0.00 0.00 63 1015.9
20260509124545 50 88 0.0 1.7 0.00 0.00 0.00 68 1016.0
20260509123052 48 0 0.0 1.7 0.00 0.00 0.00 73 1016.0
20260509121553 47 0 0.0 1.7 0.00 0.00 0.00 77 1016.0
20260509120043 46 0 0.0 0.9 0.00 0.00 0.00 80 1015.8
20260509114548 44 0 0.0 0.9 0.00 0.00 0.00 84 1015.8
20260509113053 43 0 0.0 0.9 0.00 0.00 0.00 85 1015.8
20260509111551 41 0 0.0 0.0 0.00 0.00 0.00 87 1015.8
20260509110046 40 0 0.0 0.0 0.00 0.00 0.00 87 1015.9
20260509104548 40 0 0.0 0.0 0.00 0.00 0.00 88 1016.0
20260509103053 38 0 0.0 0.0 0.00 0.00 0.00 88 1016.0
20260509101554 38 0 0.0 0.0 0.00 0.00 0.00 87 1015.7
20260509100051 37 0 0.0 0.0 0.00 0.00 0.00 87 1015.4
20260509094545 37 0 0.0 0.0 0.00 0.00 0.00 87 1015.4
20260509093057 37 0 0.0 0.0 0.00 0.00 0.00 87 1015.2
20260509091551 37 0 0.0 0.0 0.00 0.00 0.00 86 1015.2
20260509090052 37 0 0.0 0.0 0.00 0.00 0.00 86 1015.1